Location: *
(32.8140°S, 174.6161°E)
Time: 02:52:50
(UTC+00:00)

CZ-4B R/B - Pass Details

Date: 10 December 2019
Orbit: 392 x 469 km, 97.6° (Epoch: 19 January)

Event Time Altitude Azimuth Distance (km) Brightness Sun altitude
Rises 15:30:30 0° 140° (SE) 2,336 6.8 -17.2°
Reaches altitude 10° 15:34:11 10° 94° (E) 1,474 4.8 -16.7°
Maximum altitude 15:34:38 10° 86° (E) 1,461 4.6 -16.6°
Drops below altitude 10° 15:35:06 10° 77° (ENE) 1,475 4.5 -16.5°
Sets 15:38:46 0° 31° (NNE) 2,340 4.9 -15.9°
